Content
SEND FEEDBACK

Canada Flag

HAMILTON, ONTARIO


Home > North America > Canada > Ontario
Elevation: 236 meters     Latitude: 43 10N     Longitude: 079 55W

WEATHER
 
SELECT A DAY
Number of Records: 186,305;   Date Range: 1/1/95 - 3/22/16
 
SHARE

PRINT THIS DATA

[ ← Previous Day ]
WEATHER ALMANAC - 3 JANUARY, 2013
[ Next Day → ]
[ °F ]   °C
Weather ElementAverageHighLow
Temperature-5.1 °C-2 °C (2:00 pm)-9 °C (1:00 am)
Dewpoint-7.6 °C-5 °C (10:00 pm)-11.1 °C (1:00 am)
Humidity82.6 %93 % (10:00 am)71 % (1:00 pm)
Barometer1018.6 hPa1022.4 hPa (1:00 am)1015.2 hPa (2:00 pm)
Wind Speed18.5 km/h29.6 km/h (12:00 pm)
Wind Gust42.6 km/h (2:00 pm)
Weather ElementAverage
Visibility15.4 km
Wind DirectionWSW (235.9 °)

Weather ElementTotal
Precipitation---
Heating Degree Days23.8 (Base 18.3)
Averaged from 29 records on 3 January, 2013
WEATHER CONDITIONS BREAKOUT
WIND DIRECTION BREAKOUT
WEATHER BY HOUR - 3 JANUARY, 2013
[ °F ]   °C
Local TimeTemperatureDewpointHumidityBarometerVisibilityWind DirectionWind SpeedGust SpeedPrecipitationEventsConditions
1:00 AM-8.9 °C-11.1 °C75 %1022.4 hPa24.1 kmWSW (250°)7.4 km/hSnowLight Snow Showers
1:00 AM-9 °C-11 °C86 %1022.4 hPa24.1 kmWSW (250°)7.4 km/hSnowLight Snow Showers
2:00 AM-9 °C-11 °C86 %1022.4 hPa12.9 kmWSW (250°)7.4 km/hSnowLight Snow Showers
3:00 AM-9 °C-11 °C86 %1022.4 hPa11.3 kmWest (280°)9.3 km/hSnowLight Snow Showers
4:00 AM-8 °C-11 °C79 %1021.7 hPa24.1 kmWSW (250°)9.3 km/hSnowLight Snow Showers
5:00 AM-7 °C-10 °C80 %1020.7 hPa24.1 kmWNW (290°)9.3 km/hSnowLight Snow Showers
6:00 AM-7 °C-10 °C80 %1020.7 hPa24.1 kmSSW (200°)7.4 km/hSnowLight Snow Showers
7:00 AM-7 °C-9 °C86 %1020.3 hPa24.1 kmSouth (180°)7.4 km/hSnowLight Snow Showers
7:00 AM-6.7 °C-9.4 °C74 %1020.7 hPa24.1 kmSouth (190°)7.4 km/hSnowLight Snow Showers
9:00 AM-6 °C-8 °C86 %1019.6 hPa6.4 kmSouth (190°)13 km/hSnowLight Snow Showers
9:34 AM-6 °C-8 °C86 %1019.6 hPa2.9 kmSSW (200°)11.1 km/hSnowLight Snow Showers
10:00 AM-6 °C-7 °C93 %1019.3 hPa3.2 kmSSW (210°)11.1 km/hSnowLight Snow Showers
11:00 AM-4 °C-6 °C86 %1018.6 hPa6.4 kmSW (220°)20.4 km/hSnowLight Snow Showers
12:00 PM-3 °C-7 °C74 %1017.3 hPa16.1 kmSW (230°)29.6 km/hSnowLight Snow Showers
1:00 PM-3 °C-6 °C80 %1016.3 hPa19.3 kmSW (230°)25.9 km/hSnowLight Snow Showers
1:00 PM-2.8 °C-6.1 °C71 %1016.3 hPa19.3 kmSW (230°)25.9 km/hSnowLight Snow Showers
2:00 PM-2 °C-6 °C74 %1015.2 hPa24.1 kmWSW (250°)29.6 km/h42.6 km/hSnowLight Snow Showers
3:00 PM-3 °C-6 °C80 %1015.6 hPa24.1 kmWSW (240°)24.1 km/hSnowLight Snow Showers
4:00 PM-3 °C-6 °C80 %1016.3 hPa12.9 kmWSW (240°)29.6 km/hSnowLight Snow Showers
5:00 PM-4 °C-6 °C86 %1016.6 hPa11.3 kmWSW (240°)24.1 km/h33.3 km/hSnowLight Snow Showers
5:47 PM-4 °C-6 °C86 %1017.3 hPa12.9 kmWSW (250°)25.9 km/hSnowLight Snow Showers
6:00 PM-4 °C-6 °C86 %1017.3 hPa12.9 kmWSW (250°)29.6 km/hSnowLight Snow Showers
7:00 PM-4 °C-6 °C86 %1017.9 hPa11.3 kmWSW (250°)24.1 km/h33.3 km/hSnowLight Snow
7:00 PM-4.4 °C-6.7 °C80 %1017.9 hPa11.3 kmWSW (250°)24.1 km/hSnowLight Snow
8:00 PM-4 °C-6 °C86 %1018.3 hPa11.3 kmWSW (240°)24.1 km/hSnowLight Snow
8:29 PM-4 °C-6 °C86 %1018.3 hPa12.9 kmWSW (250°)22.2 km/hSnowLight Snow
9:00 PM-4 °C-6 °C86 %1017.9 hPa12.9 kmWSW (250°)24.1 km/hSnowLight Snow
10:00 PM-3 °C-5 °C86 %1017.9 hPa12.9 kmWSW (240°)22.2 km/h33.3 km/hSnowLight Snow
11:00 PM-3 °C-5 °C86 %1017.9 hPa12.9 kmWSW (240°)24.1 km/hSnowLight Snow
Hourly data recorded from CYHM, located 0 kilometers away from Hamilton, Ontario




STORIES FROM OUR PARTNERS